User: anonymous   Login
Location: Maccacari
(45.1333°N, 11.1333°E)
Time: 08:55:11
(UTC+00:00)
Language:

Cosmos 1437 - Orbit

View from above orbital plane
View from above orbital plane
View from above satellite
View from above satellite

Ground track
Ground track

The orbit data is extracted from the following two-line orbital elements,

1 13770U 83003A   21209.68416453  .00033903  00000-0  19341-3 0  9992
2 13770  81.1488  75.9998 0000334 269.1455  90.9768 15.78738969120677
Epoch (UTC): 28 July 2021 16:25:11
Eccentricity: 0.0000334
inclination: 81.1488°
perigee height: 334 km
apogee height: 334 km
right ascension of ascending node: 75.9998°
argument of perigee: 269.1455°
revolutions per day: 15.78738969
mean anomaly at epoch: 90.9768°
orbit number at epoch: 12067

The dashed part of the orbit path shows where the satellite is in the earth's shadow,  

DLR